Location: Ferma
(41.9500°N, 44.5167°E)
Time: 10:32:43
(UTC+00:00)

Cosmos 1269 Rocket - Pass Details

Date: 01 June 2022
Orbit: 773 x 778 km, 74.1° (Epoch: 01 July)

Event Time Altitude Azimuth Distance (km) Brightness Sun altitude
Rises 20:43:50 0° 347° (NNW) 3,258 8.6 -25.8°
Reaches altitude 10° 20:46:23 10° 355° (N) 2,327 7.5 -25.8°
Maximum altitude 20:51:17 38° 63° (ENE) 1,178 5.1 -25.9°
Enters shadow 20:52:37 32° 95° (E) 1,296 5.1 -25.9°
